sat.trackr.live / text

‹ back to catalog

KUIPER-00476

NORAD 68874 · 2026-095L

PAYLOAD ACTIVE UNKNOWN

§ Identity

Operator
Country
US
Launch date
2026-04-28
Launch site
AFETR
Launch vehicle
Mass (kg)
RCS (m²)

External: N2YO · Heavens-Above · Gunter

§ Orbital elements

Epoch: 2026-09-20T04:00:03.000096Z

Period
96.87 min
Inclination
51.8965°
Eccentricity
0.0011620
Mean motion
14.86583520 rev/d
Perigee alt
600.5 km
Apogee alt
616.7 km
Semi-major
6,986.8 km
B*
-1.4697e-3
RAAN
150.7101°
Arg perigee
276.3257°
Mean anomaly
253.4606°
Rev number
562

§ Raw data

KUIPER-004761 68874U 26095L   26263.16670139 -.00013386  00000+0 -14697-2 0  99982 68874  51.8965 150.7101 0011620 276.3257 253.4606 14.86583520  5627

JSON: /api/v1/satellites/68874 · /tle

For live sub-satellite position, see the globe view (requires WebGL).

§ Visibility from observer

Set your observer location to see the next 7 days of passes ≥ 10°. The values pass through the URL so the page stays shareable.

No JS? Fill the form by hand. The geolocation button needs JavaScript.